Flag for U.S.A. Weather past 2 weeks in Tucson, Arizona, U.S.A.

Now
62 °F

Clear.


Feels Like: 62 °F
Forecast: 64 / 87 °F
Wind: 9 mph from Southeast

Location: Davis-Monthan Air Force Base

Current Time: May 3, 2015 at 4:53:20 AM

Latest Report: May 3, 2015 at 3:58 AM


Visibility: 10 mi

Pressure: 29.80 "Hg

Humidity: 50%

Dew point: 43 °F

Location of TucsonLocation

Historic Weather in Tucson — Graph

°F

Tucson temperature yesterday

Maximum temperature yesterday: 91 °F (at 2:58 PM)
Minimum temperature yesterday: 65 °F (at 4:58 AM)
Average temperature yesterday: 78 °F

Past Weeks' High & Low Weather Summary

 TemperatureHumidityPressure
High94 °F (May 1, 2:58 PM)89% (Apr 26, 3:58 AM)29.99 "Hg (Apr 26, 3:58 AM)
Low47 °F (Apr 18, 5:58 AM)7% (Apr 19, 4:58 PM)29.66 "Hg (Apr 20, 6:58 PM)
Average70 °F26%29.81 "Hg
* Reported Apr 18 2:58 AM — May 3 2:58 AM, Tucson, Weather by CustomWeather, © 2015

Note: Actual official high and low records may vary slightly from our data, if they occured in-between our weather recording intervals... More about our weather records

Advertising

Tucson weather history for previous 24 hours

 ConditionsComfort  
Time TempWeatherWind HumidityBarometerVisibility
2:58 AM
Sun, May 3
65 °FClear.7 mph43%29.80 "Hg10 mi
1:58 AM66 °FClear.7 mph41%29.81 "Hg10 mi
12:58 AM67 °FPassing clouds.2 mph40%29.82 "Hg10 mi
11:58 PM
Sat, May 2
70 °FPassing clouds.3 mph36%29.82 "Hg10 mi
10:58 PM73 °FClear.5 mph32%29.81 "Hg10 mi
9:58 PM77 °FClear.9 mph28%29.77 "Hg10 mi
8:58 PM76 °FPassing clouds.8 mph27%29.74 "Hg10 mi
7:58 PM80 °FPassing clouds.9 mph22%29.72 "Hg10 mi
6:58 PM83 °FPassing clouds.10 mph19%29.70 "Hg10 mi
5:58 PM86 °FPassing clouds.7 mph15%29.70 "Hg10 mi
4:58 PM84 °FLight rain. Scattered clouds.5 mph17%29.70 "Hg10 mi
3:59 PM88 °FSunny.17 mph13%29.82 "Hg8 mi
2:58 PM91 °FSunny.2 mph11%29.70 "Hg10 mi
1:58 PM89 °FSunny.6 mph11%29.74 "Hg10 mi
12:58 PM88 °FSunny.12 mph12%29.77 "Hg10 mi
11:58 AM86 °FSunny.6 mph13%29.79 "Hg10 mi
10:58 AM84 °FSunny.9 mph12%29.81 "Hg10 mi
9:58 AM82 °FSunny.5 mph15%29.82 "Hg10 mi
8:58 AM79 °FSunny.5 mph20%29.83 "Hg10 mi
7:58 AM74 °FPassing clouds.7 mph24%29.83 "Hg10 mi
6:58 AM69 °FScattered clouds.9 mph29%29.83 "Hg10 mi
5:58 AM65 °FPassing clouds.6 mph32%29.82 "Hg10 mi
4:58 AM65 °FClear.3 mph31%29.79 "Hg10 mi
Weather by CustomWeather, © 2015

See weather overviewHow to use our weather pages